{"data":{"norad_id":62034,"epoch":"2026-05-24T12:48:29.170944Z","epoch_age_seconds":122070,"freshness":"FRESH","line1":"1 62034U 24216C   26144.53367096  .00011577  00000+0  42944-3 0  9992","line2":"2 62034  43.0005 188.1125 0001538 272.5813  87.4863 15.27588802 84318","mean_motion":15.27588802,"eccentricity":0.0001538,"inclination_deg":43.0005,"raan_deg":188.1125,"arg_perigee_deg":272.5813,"mean_anomaly_deg":87.4863,"bstar":0.00042944,"rev_number":8431,"period_min":94.266205546589,"perigee_km":481.96749344372,"apogee_km":484.07798617969,"semimajor_km":6861.1597398117,"source":"CELESTRAK","updated_at":"2026-05-25T13:38:19.523737Z"}}